Simultaneous Nadir Overpasses (SNOs) Predictions

Prediction of SNOs between AQUA and GOES-15 Satellite Orbit:

Table of predicted SNOs for the next 14.0 days since TLE Epoch: 5/22/2021
Index Date Time (AQUA) AQUA Lat,Lon GOES-15 Lat,Lon Distance(km) Time Diff (sec)
1 05/23/2021 09:54:46 -0.66,-124.93 0.07,-128.35 389.62 80
2 05/23/2021 22:16:09 -0.46,-130.12 -0.07,-128.29 207.25 80
3 05/25/2021 22:03:58 0.15,-127.16 -0.07,-128.33 132.82 80
4 05/26/2021 10:25:13 0.91,-132.32 0.07,-128.41 444.35 80
5 05/27/2021 21:51:47 0.83,-124.21 -0.07,-128.36 472.14 80
6 05/28/2021 10:13:01 0.29,-129.36 0.07,-128.44 105.39 80
7 05/30/2021 10:00:50 -0.39,-126.41 0.07,-128.46 233.34 80
8 05/30/2021 22:22:13 -0.77,-131.59 -0.07,-128.38 365.05 80
9 06/01/2021 22:10:01 -0.14,-128.63 -0.07,-128.40 26.17 80
10 06/03/2021 21:57:49 0.50,-125.67 -0.08,-128.43 312.81 80
11 06/04/2021 10:19:05 0.58,-130.83 0.07,-128.52 263.85 80
